Home > Weather > Kara > Past weeks

Flag for Togo Past Weather in Kara, Togo — Yesterday and Last 2 Weeks

Now
75 °F

Clear.


Feels Like: 73 °F
Forecast: 73 / 90 °F
Wind: No wind

Location: Niamtougou

Current Time: May 29, 2016 at 5:52:50 AM

Latest Report: May 29, 2016 at 3:00 AM


Visibility: 10 mi

Pressure: 30.01 "Hg

Humidity: 100%

Dew Point: 75 °F

Location of KaraLocation

Past Weather in Kara — Graph

°F

Kara Temperature Yesterday

Maximum temperature yesterday: 88 °F (at 3:00 PM)
Minimum temperature yesterday: 73 °F (at 9:00 PM)
Average temperature yesterday: 82 °F

High & Low Weather Summary for the Past Weeks

 TemperatureHumidityPressure
High91 °F (May 16, 3:00 PM)100% (May 24, 3:00 AM)30.12 "Hg (May 24, 3:00 AM)
Low72 °F (May 15, 12:00 AM)43% (May 20, 4:00 PM)29.89 "Hg (May 14, 4:00 PM)
Average82 °F72%30.01 "Hg
* Reported May 14 3:00 AM — May 29 3:00 AM, Kara, Weather by CustomWeather, © 2016

Note: Actual official high and low records may vary slightly from our data, if they occured in-between our weather recording intervals... More about our weather records

Advertising

Kara Weather History for the Previous 24 Hours

Scroll right to see more
 ConditionsComfort  
Time TempWeatherWind HumidityBarometerVisibility
3:00 AM
Sun, May 29
75 °FClear.No wind100%30.01 "Hg10 mi
12:00 AM77 °FPassing clouds.7 mph94%30.01 "HgN/A
9:00 PM
Sat, May 28
73 °FThunderstorms. Passing clouds.7 mph100%30.04 "HgN/A
6:00 PM84 °FPassing clouds.3 mph70%30.01 "HgN/A
5:00 PM86 °FPassing clouds.5 mph66%30.01 "HgN/A
4:00 PM86 °FPartly sunny.3 mph62%30.01 "HgN/A
3:00 PM88 °FWarm.7 mph59%30.01 "HgN/A
2:00 PM86 °FPassing clouds.7 mph59%30.01 "HgN/A
1:00 PM86 °FScattered clouds.7 mph62%30.04 "HgN/A
12:00 PM84 °FPartly sunny.8 mph66%30.07 "HgN/A
11:00 AM84 °FPartly sunny.9 mph66%30.09 "HgN/A
10:00 AM81 °FPartly sunny.10 mph79%30.09 "HgN/A
9:00 AM81 °FPartly sunny.9 mph79%30.09 "HgN/A
8:00 AM79 °FPartly sunny.8 mph84%30.09 "HgN/A
7:00 AM77 °FScattered clouds.3 mph89%30.09 "HgN/A
6:00 AM77 °FPassing clouds.6 mph89%30.07 "HgN/A
Weather by CustomWeather, © 2016

See weather overviewHow to use our weather pages